[[{"header":{"parameterUnit":"m.s-1","parameterCategory":2,"la1":30.2991,"la2":30.254,"lo1":-89.0895,"lo2":-89.0444,"dy":0.0017,"dx":0.0017,"nx":28,"ny":28,"refTime":"2024-07-28T03:00:00:Z","depth":"0","parameterNumber":2,"parameterNumberName":"U-component_of_CURRENTS"},"data":[0,0,0,0,0,0,0,0,0,0,0,0,0,0,0,0,0,0,0,0,0,0,0,0,0,0,0,0,0,0,0,0,0,0,0,0,0,0,0,0,0,0,0,0,0,0,0,0,0,0,0,0,0,0,0,0,0,0,-0.1709,-0.171,0,-0.1812,-0.1813,-0.1814,-0.1831,-0.1831,-0.183,-0.183,-0.1791,-0.1791,-0.179,0,0,0,0,0,0,0,0,0,0,0,0,0,-0.1554,-0.1556,-0.1709,-0.171,-0.1712,-0.1812,-0.1813,-0.1814,-0.1831,-0.1831,-0.183,-0.1829,-0.1792,-0.1791,-0.179,0,0,0,0,0,0,0,0,0,0,0,0,0,-0.1631,-0.1557,-0.1708,-0.1736,-0.174,-0.1812,-0.1813,-0.1814,-0.1831,-0.183,-0.183,-0.1829,-0.1792,-0.1791,-0.179,-0.1798,0,0,-0.1787,-0.1787,0,0,0,0,0,0,0,0,-0.1627,-0.1636,-0.173,-0.1734,-0.1739,-0.1812,-0.1745,-0.1803,-0.1831,-0.1792,-0.183,-0.1829,-0.1789,-0.1788,-0.1804,-0.1797,-0.1795,-0.1787,-0.1787,-0.1786,-0.1786,0,0,0,0,0,0,0,-0.1621,-0.1632,-0.1745,-0.1732,-0.1738,-0.1753,-0.1763,-0.1756,-0.1786,-0.1795,-0.1798,-0.1817,-0.1789,-0.1805,-0.1803,-0.1794,-0.1787,-0.1787,-0.1786,-0.1786,-0.1767,-0.1767,0,0,0,0,0,0,-0.1618,-0.1627,-0.1742,-0.1749,-0.1685,-0.1757,-0.1767,-0.1785,-0.179,-0.1792,-0.1817,-0.1817,-0.1807,-0.1804,-0.1802,-0.1787,-0.1786,-0.1786,-0.1785,-0.1767,-0.1767,-0.1767,0,0,0,0,0,0,-0.1614,-0.1627,-0.1738,-0.1694,-0.1709,-0.1761,-0.1781,-0.1788,-0.1804,-0.1809,-0.1808,-0.1826,-0.1807,-0.1803,-0.1798,-0.1786,-0.1785,-0.1784,-0.1767,-0.1767,-0.1767,-0.1773,0,0,0,0,0,0,-0.1609,-0.1625,-0.1631,-0.1694,-0.1712,-0.1777,-0.1782,-0.1791,-0.1819,-0.182,-0.1816,-0.1813,-0.1806,-0.1799,-0.1797,-0.1785,-0.1784,-0.1767,-0.1767,-0.1767,-0.1773,-0.1773,-0.1774,0,0,0,0,0,-0.1603,-0.1614,-0.163,-0.1645,-0.1721,-0.1778,-0.1788,-0.1819,-0.182,-0.1829,-0.1828,-0.1813,-0.1797,-0.1799,-0.1796,-0.1784,-0.1767,-0.1767,-0.1767,-0.1773,-0.1773,-0.1774,0,0,0,0,0,0,-0.1554,-0.162,-0.1638,-0.167,-0.172,-0.1782,-0.1797,-0.182,-0.183,-0.1826,-0.1819,-0.1816,-0.1806,-0.1798,-0.18,-0.1779,-0.1777,-0.1776,-0.1782,-0.1783,-0.1783,-0.1787,-0.1783,0,0,0,0,0,-0.1547,-0.1565,-0.1639,-0.166,-0.1688,-0.1742,-0.1767,-0.1795,-0.182,-0.1826,-0.1824,-0.1816,-0.1806,-0.1797,-0.1792,-0.1783,-0.1778,-0.1771,-0.1772,-0.1772,-0.1773,-0.1765,-0.1765,-0.1767,-0.1767,-0.1767,0,0,-0.1539,-0.1572,-0.1586,-0.1649,-0.1689,-0.1741,-0.1753,-0.1798,-0.1827,-0.1817,-0.1833,-0.182,-0.1806,-0.1798,-0.1792,-0.1787,-0.1769,-0.1772,-0.1773,-0.1774,-0.1765,-0.1765,-0.1764,-0.1767,-0.1767,-0.1767,0,0,-0.1538,-0.1558,-0.1585,-0.163,-0.1696,-0.1731,-0.1744,-0.1809,-0.1819,-0.1842,-0.1834,-0.1816,-0.1814,-0.1797,-0.1788,-0.1787,-0.1775,-0.1782,-0.1781,-0.1773,-0.1773,-0.1772,-0.1765,-0.1764,-0.1777,-0.1777,-0.1777,0,-0.1525,-0.1573,-0.1601,-0.1648,-0.1691,-0.1728,-0.1783,-0.1801,-0.185,-0.1854,-0.1844,-0.1832,-0.1812,-0.1796,-0.1791,-0.1786,-0.1785,-0.178,-0.1774,-0.1773,-0.1773,-0.1766,-0.1764,-0.1778,-0.1778,-0.1778,-0.1778,0,-0.1562,-0.1604,-0.1622,-0.1691,-0.1733,-0.1781,-0.183,-0.1846,-0.1855,-0.1875,-0.1864,-0.1837,-0.1828,-0.181,-0.1797,-0.178,-0.1782,-0.1779,-0.1772,-0.1773,-0.1765,-0.1764,-0.1778,-0.1778,-0.1778,-0.1778,0,0,-0.153,-0.163,-0.1639,-0.1685,-0.1764,-0.1805,-0.1838,-0.1885,-0.1905,-0.19,-0.191,-0.1868,-0.1849,-0.1837,-0.1809,-0.1787,-0.1772,-0.178,-0.1779,-0.1773,-0.1759,-0.1644,-0.1632,-0.1772,-0.1772,-0.1772,-0.1755,0,-0.1556,-0.1644,-0.1689,-0.1772,-0.1828,-0.1869,-0.1901,-0.1936,-0.1947,-0.1956,-0.1905,-0.1902,-0.1861,-0.1849,-0.1819,-0.1792,-0.1769,-0.1777,-0.1759,-0.1758,-0.1656,-0.1626,-0.1517,-0.1482,-0.1753,-0.1753,-0.1753,0,-0.1585,-0.164,-0.1721,-0.1823,-0.1852,-0.189,-0.1948,-0.1986,-0.1996,-0.2003,-0.1978,-0.1957,-0.191,-0.1877,-0.1819,-0.183,-0.1793,-0.1764,-0.1763,-0.1653,-0.164,-0.1525,-0.1469,-0.1433,-0.1751,-0.1751,-0.1751,0,-0.1552,-0.1667,-0.1721,-0.1758,-0.1866,-0.1887,-0.1938,-0.1981,-0.2007,-0.202,-0.2028,-0.1992,-0.1956,-0.1914,-0.1831,-0.1839,-0.1766,-0.1776,-0.1639,-0.1632,-0.153,-0.1513,-0.1434,-0.1736,-0.1736,-0.1736,-0.1737,0,-0.1564,-0.1611,-0.17,-0.1732,-0.1791,-0.1872,-0.1921,-0.1968,-0.2007,-0.203,-0.2033,-0.2016,-0.1963,-0.1908,-0.1851,-0.1721,-0.1781,-0.1626,-0.161,-0.1528,-0.1511,-0.1468,-0.1498,-0.1736,-0.1736,-0.1736,-0.1736,0,-0.1514,-0.158,-0.1645,-0.1746,-0.1773,-0.1808,-0.1909,-0.1945,-0.1995,-0.2018,-0.2018,-0.2021,-0.1949,-0.1882,-0.1806,-0.1723,-0.1586,-0.1577,-0.1475,-0.1444,-0.1267,-0.1302,-0.1244,-0.1217,-0.1432,-0.1429,-0.1427,0,-0.1498,-0.1513,-0.1621,-0.165,-0.1686,-0.1752,-0.18,-0.1905,-0.1945,-0.2005,-0.2001,-0.1956,-0.1886,-0.1727,-0.1582,-0.1451,-0.1467,-0.1285,-0.1262,-0.1219,-0.1249,-0.1303,-0.129,-0.1146,-0.1141,-0.1138,-0.1134,0,-0.1438,-0.1458,-0.1507,-0.156,-0.1611,-0.1682,-0.1757,-0.1787,-0.1895,-0.1907,-0.1887,-0.1836,-0.1698,-0.1475,-0.1307,-0.1231,-0.1236,-0.1199,-0.1187,-0.1028,-0.1053,-0.1031,-0.1213,-0.11,-0.1104,-0.1106,-0.1108,-0.1109,-0.1361,-0.1364,-0.1402,-0.1438,-0.1505,-0.1546,-0.155,-0.1623,-0.1635,-0.1569,-0.1664,-0.1443,-0.1332,-0.1056,-0.1022,-0.0848,-0.0969,-0.0789,-0.0842,-0.0906,-0.0844,-0.0934,-0.0777,-0.0778,-0.078,-0.0781,-0.0782,0,-0.1247,-0.1243,-0.1277,-0.1306,-0.1309,-0.1396,-0.1461,-0.1404,-0.1342,-0.1245,-0.1158,-0.0837,-0.071,-0.0635,-0.0522,-0.0492,-0.0541,-0.0501,-0.0572,-0.0582,-0.0667,-0.0613,-0.0372,-0.0372,-0.0372,-0.0373,-0.0373,-0.0373,-0.1184,-0.1143,-0.1144,-0.1069,-0.109,-0.1039,-0.1038,-0.0965,-0.0851,-0.0526,-0.0238,-0.0121,-0.0146,-0.0239,-0.0289,-0.0315,-0.0372,-0.0348,-0.0429,-0.0498,-0.053,-0.0561,-0.0515,-0.0257,-0.0257,-0.0297,-0.0298,-0.0298]},{"header":{"parameterUnit":"m.s-1","parameterCategory":2,"la1":30.2991,"la2":30.254,"lo1":-89.0895,"lo2":-89.0444,"dy":0.0017,"dx":0.0017,"nx":28,"ny":28,"refTime":"2024-07-28T03:00:00:Z","depth":"0","parameterNumber":3,"parameterNumberName":"V-component_of_CURRENTS"},"data":[0,0,0,0,0,0,0,0,0,0,0,0,0,0,0,0,0,0,0,0,0,0,0,0,0,0,0,0,0,0,0,0,0,0,0,0,0,0,0,0,0,0,0,0,0,0,0,0,0,0,0,0,0,0,0,0,0,0,0.0459,0.046,0,0.0536,0.0537,0.0538,0.0578,0.0578,0.0578,0.0578,0.0653,0.0655,0.0658,0,0,0,0,0,0,0,0,0,0,0,0,0,0.04,0.0401,0.0459,0.046,0.046,0.0536,0.0537,0.0538,0.0578,0.0578,0.0578,0.0578,0.0653,0.0655,0.0658,0,0,0,0,0,0,0,0,0,0,0,0,0,0.0448,0.0401,0.0459,0.0488,0.0491,0.0535,0.0537,0.0538,0.0578,0.0578,0.0578,0.0578,0.0652,0.0655,0.0658,0.0681,0,0,0.0668,0.0669,0,0,0,0,0,0,0,0,0.0445,0.045,0.0483,0.0486,0.049,0.0545,0.0544,0.0585,0.0578,0.0547,0.0578,0.0577,0.0616,0.0622,0.064,0.0685,0.0688,0.0668,0.067,0.0671,0.0672,0,0,0,0,0,0,0,0.0441,0.0447,0.0491,0.0484,0.0488,0.0515,0.0522,0.0552,0.0583,0.055,0.0552,0.0558,0.0618,0.0637,0.0642,0.0689,0.0668,0.0671,0.0673,0.0674,0.0802,0.0804,0,0,0,0,0,0,0.0426,0.0444,0.0489,0.0493,0.0464,0.0516,0.0523,0.0529,0.0583,0.059,0.0558,0.056,0.0631,0.0638,0.0645,0.0693,0.0671,0.0674,0.0676,0.0801,0.0803,0.0804,0,0,0,0,0,0,0.0424,0.0429,0.0486,0.0469,0.0478,0.0517,0.0524,0.0531,0.0551,0.0589,0.0597,0.057,0.0631,0.064,0.0681,0.0695,0.0676,0.0679,0.0799,0.0802,0.0804,0.0778,0,0,0,0,0,0,0.0422,0.0428,0.0432,0.0468,0.0478,0.0515,0.0524,0.0532,0.0553,0.0556,0.0602,0.0609,0.0632,0.0676,0.0684,0.0699,0.0681,0.0797,0.08,0.0803,0.0777,0.0779,0.0781,0,0,0,0,0,0.042,0.0415,0.0432,0.0437,0.048,0.0515,0.0523,0.0552,0.0554,0.0568,0.06,0.0607,0.07,0.068,0.0689,0.0705,0.0796,0.0799,0.0803,0.0776,0.0779,0.0781,0,0,0,0,0,0,0.0389,0.042,0.0439,0.0444,0.0481,0.0521,0.0526,0.0551,0.0588,0.0586,0.0622,0.0632,0.0676,0.0699,0.0675,0.0755,0.0752,0.0757,0.0728,0.0731,0.0733,0.0695,0.0684,0,0,0,0,0,0.0385,0.0389,0.0433,0.0437,0.045,0.049,0.0507,0.0532,0.0565,0.0581,0.0618,0.0658,0.0698,0.0718,0.0758,0.0795,0.0781,0.0816,0.0818,0.0819,0.0798,0.0798,0.0796,0.0816,0.0815,0.0815,0,0,0.0374,0.039,0.0393,0.0432,0.0454,0.0476,0.05,0.0522,0.0546,0.0583,0.0622,0.0664,0.0711,0.0757,0.0779,0.0775,0.0808,0.0824,0.0824,0.0802,0.0801,0.0798,0.0796,0.0818,0.0817,0.0817,0,0,0.035,0.0366,0.0366,0.0395,0.0432,0.046,0.0465,0.0516,0.0542,0.0589,0.0624,0.0672,0.0735,0.0773,0.0798,0.0836,0.0819,0.0857,0.0832,0.0832,0.0829,0.0827,0.0796,0.0791,0.0856,0.0856,0.0856,0,0.0335,0.0337,0.0374,0.0386,0.0394,0.0449,0.0453,0.0497,0.056,0.0572,0.0597,0.0688,0.074,0.078,0.0805,0.0837,0.0818,0.0814,0.083,0.0827,0.0825,0.0794,0.0789,0.0855,0.0855,0.0855,0.0855,0,0.0318,0.0323,0.0319,0.035,0.0376,0.038,0.0441,0.0473,0.0508,0.055,0.0601,0.0677,0.0718,0.0764,0.0798,0.0818,0.0803,0.0829,0.0811,0.082,0.0789,0.0783,0.0854,0.0854,0.0855,0.0855,0,0,0.0263,0.0297,0.0294,0.0286,0.0347,0.0351,0.0397,0.0434,0.0432,0.0523,0.0521,0.0637,0.0665,0.0696,0.0753,0.0775,0.0762,0.0791,0.0791,0.0736,0.0726,0.0695,0.0686,0.0781,0.0781,0.078,0.0707,0,0.0229,0.0209,0.0257,0.0242,0.0226,0.0292,0.0318,0.0367,0.0413,0.0435,0.0523,0.0554,0.0643,0.0655,0.0695,0.0745,0.0747,0.0777,0.0747,0.0745,0.0696,0.0679,0.0739,0.0676,0.0701,0.07,0.07,0,0.0192,0.0174,0.0142,0.0145,0.0146,0.0162,0.017,0.0209,0.0275,0.031,0.0366,0.0427,0.0492,0.0557,0.0624,0.0633,0.0667,0.0708,0.0707,0.0676,0.0703,0.0677,0.0665,0.0773,0.0691,0.0692,0.0692,0,0.009,0.009,0.0042,0.0046,0.0074,0.0074,0.0098,0.0158,0.0164,0.0222,0.0215,0.031,0.0332,0.041,0.0518,0.0557,0.0561,0.0626,0.0621,0.0618,0.0661,0.0663,0.0728,0.0638,0.0638,0.0639,0.0639,0,0.0017,-0.0016,-0.0019,-0.0044,-0.0105,-0.0034,-0.0069,-0.0023,0.0019,0.0004,0.0131,0.0129,0.0294,0.0334,0.0444,0.0498,0.0497,0.0591,0.0595,0.0655,0.0657,0.0747,0.0788,0.0636,0.0636,0.0637,0.0637,0,-0.0073,-0.007,-0.0137,-0.0148,-0.0153,-0.0198,-0.0177,-0.0202,-0.0139,-0.016,-0.015,-0.0035,0.0036,0.0172,0.0283,0.0376,0.0501,0.0464,0.0507,0.0517,0.0633,0.0669,0.0643,0.0715,0.045,0.0449,0.0448,0,-0.0107,-0.0161,-0.0237,-0.0289,-0.0292,-0.0335,-0.0359,-0.0295,-0.0309,-0.026,-0.0287,-0.0218,-0.0135,0.0006,0.0176,0.0315,0.0429,0.042,0.0526,0.0619,0.0664,0.0671,0.0737,0.0574,0.0574,0.0574,0.0574,0,-0.019,-0.0235,-0.03,-0.0415,-0.0471,-0.0525,-0.0542,-0.0572,-0.0504,-0.0478,-0.0424,-0.0345,-0.0201,0.002,0.0175,0.0273,0.0502,0.0422,0.053,0.0757,0.0758,0.0837,0.0619,0.0574,0.0574,0.0574,0.0574,0.0574,-0.0254,-0.034,-0.0437,-0.0539,-0.061,-0.0671,-0.0681,-0.0662,-0.0643,-0.0484,-0.046,-0.0156,0.0005,0.0271,0.0309,0.0509,0.0483,0.0633,0.0661,0.0652,0.0749,0.0497,0.0454,0.0453,0.0453,0.0452,0.0451,0,-0.0336,-0.042,-0.0537,-0.0651,-0.0728,-0.0733,-0.0765,-0.0697,-0.0614,-0.038,-0.0199,0.0318,0.0443,0.0607,0.0758,0.0812,0.0845,0.0836,0.0919,0.0975,0.0776,0.0815,0.0835,0.0835,0.0835,0.0835,0.0835,0.0835,-0.038,-0.0517,-0.0583,-0.0717,-0.0773,-0.0797,-0.0788,-0.0626,-0.0409,0.0105,0.0602,0.0909,0.1163,0.1048,0.1113,0.11,0.1216,0.1109,0.1164,0.1103,0.1089,0.1076,0.1126,0.1211,0.1211,0.1409,0.1411,0.1413]}],[{"header":{"parameterUnit":"m.s-1","parameterCategory":2,"la1":30.2991,"la2":30.254,"lo1":-89.0895,"lo2":-89.0444,"dy":0.0017,"dx":0.0017,"nx":28,"ny":28,"refTime":"2024-07-28T03:00:00:Z","depth":"2","parameterNumber":2,"parameterNumberName":"U-component_of_CURRENTS"},"data":[0,0,0,0,0,0,0,0,0,0,0,0,0,0,0,0,0,0,0,0,0,0,0,0,0,0,0,0,0,0,0,0,0,0,0,0,0,0,0,0,0,0,0,0,0,0,0,0,0,0,0,0,0,0,0,0,0,0,-0.2624,-0.2624,0,-0.2628,-0.2628,-0.2628,-0.2582,-0.2581,-0.258,-0.2579,-0.2499,-0.2498,-0.2497,0,0,0,0,0,0,0,0,0,0,0,0,0,-0.253,-0.2532,-0.2624,-0.2624,-0.2625,-0.2628,-0.2628,-0.2628,-0.2582,-0.2581,-0.258,-0.2579,-0.25,-0.2498,-0.2497,0,0,0,0,0,0,0,0,0,0,0,0,0,-0.2553,-0.2532,-0.2624,-0.2605,-0.2603,-0.2629,-0.2628,-0.2628,-0.2582,-0.2581,-0.2579,-0.2578,-0.25,-0.2498,-0.2497,-0.2514,0,0,-0.2491,-0.249,0,0,0,0,0,0,0,0,-0.2552,-0.2556,-0.2607,-0.2606,-0.2604,-0.2606,-0.2566,-0.2587,-0.2583,-0.2587,-0.2579,-0.2577,-0.2531,-0.2526,-0.2527,-0.2511,-0.2507,-0.2491,-0.249,-0.2489,-0.2489,0,0,0,0,0,0,0,-0.255,-0.2556,-0.2622,-0.2608,-0.2606,-0.258,-0.2582,-0.257,-0.2562,-0.2586,-0.2584,-0.259,-0.2528,-0.2529,-0.2524,-0.2506,-0.2491,-0.2489,-0.2488,-0.2488,-0.2447,-0.2447,0,0,0,0,0,0,-0.2561,-0.2555,-0.2622,-0.2623,-0.2578,-0.2584,-0.2585,-0.2604,-0.2564,-0.2559,-0.2591,-0.2588,-0.2532,-0.2526,-0.2521,-0.2511,-0.2489,-0.2487,-0.2486,-0.2447,-0.2447,-0.2447,0,0,0,0,0,0,-0.2559,-0.2568,-0.2622,-0.259,-0.2596,-0.2588,-0.2609,-0.2605,-0.2604,-0.257,-0.2561,-0.2593,-0.2531,-0.2524,-0.2507,-0.2509,-0.2487,-0.2485,-0.2447,-0.2447,-0.2447,-0.2509,0,0,0,0,0,0,-0.2557,-0.2567,-0.2577,-0.2592,-0.2598,-0.2644,-0.261,-0.2606,-0.2612,-0.2607,-0.2569,-0.256,-0.2529,-0.251,-0.2505,-0.2506,-0.2483,-0.2447,-0.2447,-0.2447,-0.2507,-0.2512,-0.2515,0,0,0,0,0,-0.2554,-0.2573,-0.2578,-0.2586,-0.2615,-0.2645,-0.2646,-0.2632,-0.2613,-0.2622,-0.2589,-0.2561,-0.2506,-0.2509,-0.2503,-0.2503,-0.2447,-0.2447,-0.2447,-0.2506,-0.2511,-0.2515,0,0,0,0,0,0,-0.2534,-0.2571,-0.2577,-0.2606,-0.2629,-0.2638,-0.264,-0.264,-0.2624,-0.2609,-0.2572,-0.2562,-0.2544,-0.2518,-0.2523,-0.2489,-0.2468,-0.2467,-0.2515,-0.2519,-0.2523,-0.255,-0.2482,0,0,0,0,0,-0.254,-0.256,-0.2597,-0.2617,-0.2631,-0.2639,-0.2646,-0.2646,-0.2639,-0.263,-0.2602,-0.2566,-0.2543,-0.2527,-0.2502,-0.2494,-0.2445,-0.2485,-0.2489,-0.2493,-0.2509,-0.2467,-0.2469,-0.2447,-0.2447,-0.2447,0,0,-0.2534,-0.2559,-0.2568,-0.2614,-0.2623,-0.2655,-0.2638,-0.2657,-0.2675,-0.2624,-0.2619,-0.2584,-0.2544,-0.2528,-0.2518,-0.2505,-0.2459,-0.2493,-0.2496,-0.2511,-0.2468,-0.247,-0.2472,-0.2447,-0.2447,-0.2447,0,0,-0.2541,-0.2561,-0.2586,-0.2615,-0.2648,-0.2659,-0.2671,-0.2688,-0.2684,-0.2687,-0.2647,-0.2623,-0.2584,-0.2562,-0.2544,-0.2558,-0.2485,-0.2535,-0.2576,-0.2535,-0.2537,-0.2538,-0.2419,-0.241,-0.2534,-0.2534,-0.2534,0,-0.253,-0.2574,-0.2596,-0.2635,-0.2652,-0.2667,-0.2698,-0.2712,-0.2716,-0.2703,-0.2688,-0.2625,-0.2605,-0.2582,-0.2592,-0.257,-0.2505,-0.2564,-0.2542,-0.2542,-0.2543,-0.2421,-0.241,-0.2537,-0.2537,-0.2537,-0.2536,0,-0.2568,-0.26,-0.2616,-0.2669,-0.2694,-0.2719,-0.2753,-0.276,-0.275,-0.2745,-0.2717,-0.2688,-0.2645,-0.2636,-0.2627,-0.2613,-0.2548,-0.2555,-0.2535,-0.2549,-0.2418,-0.2405,-0.2542,-0.2541,-0.254,-0.2539,0,0,-0.2537,-0.2624,-0.2626,-0.2651,-0.271,-0.2729,-0.2764,-0.2783,-0.2768,-0.2774,-0.2738,-0.274,-0.2708,-0.2689,-0.2662,-0.2646,-0.2588,-0.2612,-0.2609,-0.2501,-0.2429,-0.23,-0.2272,-0.2591,-0.259,-0.259,-0.2315,0,-0.2551,-0.2622,-0.2661,-0.2706,-0.274,-0.2764,-0.2782,-0.2798,-0.2786,-0.2753,-0.274,-0.27,-0.2733,-0.2695,-0.2695,-0.2618,-0.2567,-0.2658,-0.2426,-0.2417,-0.231,-0.2259,-0.2147,-0.1887,-0.2302,-0.23,-0.2298,0,-0.2565,-0.2613,-0.2669,-0.2711,-0.2722,-0.2749,-0.2748,-0.2771,-0.2751,-0.2729,-0.2711,-0.268,-0.2665,-0.2681,-0.2582,-0.2633,-0.2545,-0.2485,-0.2473,-0.2333,-0.2268,-0.1951,-0.1848,-0.2276,-0.2277,-0.2279,-0.228,0,-0.2526,-0.2601,-0.2638,-0.2662,-0.2724,-0.2731,-0.2753,-0.2751,-0.2736,-0.2711,-0.2656,-0.2645,-0.2576,-0.2547,-0.2456,-0.2508,-0.2298,-0.2341,-0.2124,-0.2109,-0.1959,-0.1934,-0.225,-0.225,-0.2251,-0.2252,-0.2253,0,-0.2523,-0.2542,-0.262,-0.2646,-0.265,-0.2706,-0.2688,-0.2698,-0.2676,-0.261,-0.264,-0.2543,-0.2544,-0.2429,-0.2399,-0.2195,-0.2241,-0.2107,-0.204,-0.1968,-0.1948,-0.2269,-0.2275,-0.2241,-0.2244,-0.2246,-0.2247,0,-0.2472,-0.2531,-0.2564,-0.2629,-0.2639,-0.2642,-0.2659,-0.2628,-0.2626,-0.2533,-0.2519,-0.2429,-0.2268,-0.2222,-0.2083,-0.2046,-0.192,-0.1827,-0.1704,-0.163,-0.1764,-0.1777,-0.156,-0.1553,-0.1548,-0.1543,-0.1539,0,-0.2454,-0.2475,-0.2534,-0.2537,-0.2566,-0.2583,-0.2566,-0.2594,-0.255,-0.2432,-0.2352,-0.2182,-0.2002,-0.1747,-0.1663,-0.1515,-0.1656,-0.1323,-0.1442,-0.1742,-0.1698,-0.172,-0.1739,-0.1226,-0.122,-0.1215,-0.1211,0,-0.2409,-0.2425,-0.2456,-0.2456,-0.2453,-0.2438,-0.2425,-0.2378,-0.2352,-0.2248,-0.2039,-0.189,-0.1631,-0.1392,-0.1215,-0.1154,-0.1368,-0.1212,-0.1528,-0.1443,-0.1412,-0.1376,-0.1408,-0.1166,-0.1171,-0.1174,-0.1176,-0.1178,-0.2342,-0.2344,-0.2363,-0.2341,-0.2323,-0.2238,-0.2161,-0.2106,-0.1969,-0.1757,-0.1741,-0.1485,-0.1359,-0.1021,-0.0895,-0.0843,-0.096,-0.096,-0.0982,-0.1008,-0.1043,-0.1008,-0.0685,-0.0687,-0.0688,-0.069,-0.0691,0,-0.2242,-0.2248,-0.2238,-0.2187,-0.2081,-0.2121,-0.2002,-0.1838,-0.1586,-0.1501,-0.131,-0.1056,-0.0836,-0.0768,-0.0598,-0.0521,-0.0596,-0.0511,-0.0633,-0.0675,-0.0713,-0.0743,-0.03,-0.0299,-0.0298,-0.0297,0,0,-0.2188,-0.214,-0.2128,-0.1926,-0.1884,-0.1679,-0.1567,-0.1302,-0.117,-0.093,-0.0854,-0.085,-0.0787,-0.0587,-0.0472,-0.037,-0.0545,-0.0347,-0.0658,-0.0849,-0.0887,-0.0955,-0.1043,0,0,0,0,0]},{"header":{"parameterUnit":"m.s-1","parameterCategory":2,"la1":30.2991,"la2":30.254,"lo1":-89.0895,"lo2":-89.0444,"dy":0.0017,"dx":0.0017,"nx":28,"ny":28,"refTime":"2024-07-28T03:00:00:Z","depth":"2","parameterNumber":3,"parameterNumberName":"V-component_of_CURRENTS"},"data":[0,0,0,0,0,0,0,0,0,0,0,0,0,0,0,0,0,0,0,0,0,0,0,0,0,0,0,0,0,0,0,0,0,0,0,0,0,0,0,0,0,0,0,0,0,0,0,0,0,0,0,0,0,0,0,0,0,0,-0.0407,-0.0406,0,-0.0338,-0.0338,-0.0337,-0.0288,-0.0288,-0.0287,-0.0287,-0.0193,-0.0191,-0.0188,0,0,0,0,0,0,0,0,0,0,0,0,0,-0.0412,-0.0413,-0.0407,-0.0406,-0.0405,-0.0339,-0.0338,-0.0337,-0.0288,-0.0288,-0.0287,-0.0287,-0.0193,-0.0191,-0.0188,0,0,0,0,0,0,0,0,0,0,0,0,0,-0.0383,-0.0413,-0.0407,-0.0373,-0.037,-0.0339,-0.0338,-0.0336,-0.0288,-0.0288,-0.0287,-0.0287,-0.0194,-0.0191,-0.0188,-0.0178,0,0,-0.0178,-0.0176,0,0,0,0,0,0,0,0,-0.0385,-0.0383,-0.0379,-0.0376,-0.0371,-0.0322,-0.0305,-0.0282,-0.0288,-0.0319,-0.0287,-0.0286,-0.0234,-0.0227,-0.0216,-0.0174,-0.017,-0.0178,-0.0176,-0.0174,-0.0173,0,0,0,0,0,0,0,-0.0387,-0.0385,-0.0379,-0.0378,-0.0374,-0.0333,-0.0329,-0.03,-0.0279,-0.0316,-0.0312,-0.0306,-0.0232,-0.0219,-0.0213,-0.0168,-0.0178,-0.0175,-0.0173,-0.0171,-0.0098,-0.0098,0,0,0,0,0,0,-0.0402,-0.0388,-0.0382,-0.0377,-0.0377,-0.0334,-0.0329,-0.0338,-0.028,-0.0271,-0.0306,-0.0304,-0.0225,-0.0217,-0.0209,-0.0177,-0.0174,-0.0171,-0.0169,-0.0098,-0.0098,-0.0098,0,0,0,0,0,0,-0.0402,-0.0402,-0.0384,-0.038,-0.0375,-0.0335,-0.0344,-0.0337,-0.0331,-0.0273,-0.0263,-0.031,-0.0224,-0.0214,-0.0186,-0.0173,-0.017,-0.0167,-0.0098,-0.0098,-0.0098,-0.0123,0,0,0,0,0,0,-0.0403,-0.0403,-0.0413,-0.0382,-0.0376,-0.037,-0.0345,-0.0336,-0.0328,-0.0324,-0.0273,-0.0263,-0.0223,-0.0192,-0.0183,-0.0169,-0.0164,-0.0098,-0.0098,-0.0098,-0.0122,-0.0124,-0.0125,0,0,0,0,0,-0.0404,-0.0428,-0.0415,-0.0413,-0.0392,-0.037,-0.0363,-0.0331,-0.0329,-0.0326,-0.0293,-0.0265,-0.0185,-0.0189,-0.0179,-0.0163,-0.0098,-0.0098,-0.0098,-0.0121,-0.0123,-0.0125,0,0,0,0,0,0,-0.0436,-0.0424,-0.0409,-0.0428,-0.0399,-0.0362,-0.0363,-0.0344,-0.0317,-0.0318,-0.0268,-0.0255,-0.0225,-0.0198,-0.0204,-0.0144,-0.0136,-0.0134,-0.0157,-0.0159,-0.016,-0.0138,-0.0161,0,0,0,0,0,-0.0449,-0.0465,-0.0433,-0.0447,-0.044,-0.0405,-0.0394,-0.0371,-0.0343,-0.0332,-0.0296,-0.0257,-0.0217,-0.0193,-0.0159,-0.013,-0.0078,-0.0113,-0.0115,-0.0116,-0.0092,-0.0001,0.0009,-0.0098,-0.0098,-0.0098,0,0,-0.0464,-0.0461,-0.0468,-0.0455,-0.0436,-0.0419,-0.0398,-0.0389,-0.0366,-0.0326,-0.0298,-0.0267,-0.0214,-0.0175,-0.0158,-0.015,-0.0067,-0.0116,-0.0118,-0.0092,0.0,0.0011,0.0021,-0.0098,-0.0098,-0.0098,0,0,-0.0505,-0.0503,-0.0525,-0.0501,-0.0477,-0.0446,-0.0449,-0.0415,-0.0392,-0.0365,-0.0323,-0.0279,-0.024,-0.0175,-0.0143,-0.0134,-0.0084,-0.014,-0.0118,-0.0031,-0.0021,-0.0011,0.0038,0.0053,-0.0133,-0.0133,-0.0133,0,-0.0523,-0.0539,-0.0524,-0.0526,-0.05,-0.0463,-0.0453,-0.0425,-0.0382,-0.0345,-0.0363,-0.026,-0.0228,-0.0135,-0.0136,-0.0132,-0.0092,-0.0116,-0.003,-0.0019,-0.0009,0.0039,0.0056,-0.0134,-0.0134,-0.0134,-0.0134,0,-0.0565,-0.0567,-0.0579,-0.0561,-0.0531,-0.0522,-0.0468,-0.0439,-0.0417,-0.0369,-0.0298,-0.0251,-0.0176,-0.017,-0.0153,-0.0057,-0.0059,-0.0049,-0.0022,0.0001,0.0049,0.0067,-0.0136,-0.0136,-0.0135,-0.0135,0,0,-0.0632,-0.0613,-0.0613,-0.0595,-0.0543,-0.0522,-0.0476,-0.0404,-0.0355,-0.0318,-0.0243,-0.0184,-0.0148,-0.0108,-0.0073,-0.0004,0.0081,-0.0002,0.0003,0.0053,0.025,0.0149,0.0159,0.0106,0.0109,0.0112,0.0243,0,-0.0663,-0.0677,-0.0642,-0.0617,-0.0609,-0.0532,-0.0481,-0.0404,-0.0344,-0.0266,-0.0189,-0.0121,-0.0126,-0.0093,-0.0021,0.0062,0.0132,0.0044,0.0217,0.0222,0.0136,0.0178,0.0197,0.0307,0.0261,0.0264,0.0266,0,-0.0709,-0.0705,-0.0709,-0.0627,-0.0612,-0.0581,-0.0466,-0.0412,-0.0281,-0.0233,-0.0138,-0.0078,0.0036,0.0013,0.0189,0.0129,0.0191,0.0246,0.0252,0.0189,0.0155,0.0283,0.0342,0.0296,0.0294,0.0291,0.0289,0,-0.0773,-0.0736,-0.0741,-0.0721,-0.0639,-0.0601,-0.0533,-0.0406,-0.0337,-0.0205,-0.0139,-0.0006,0.0065,0.0174,0.0261,0.024,0.0439,0.0431,0.0405,0.0398,0.0466,0.0457,0.057,0.057,0.057,0.0569,0.0569,0,-0.0826,-0.0816,-0.0776,-0.078,-0.0736,-0.0649,-0.057,-0.0485,-0.0345,-0.0237,-0.013,-0.0027,0.011,0.0231,0.0301,0.0395,0.0478,0.0428,0.0439,0.0448,0.0437,0.0472,0.0459,0.0574,0.0573,0.0572,0.0571,0,-0.0912,-0.089,-0.0886,-0.0815,-0.0783,-0.0756,-0.0607,-0.0529,-0.0403,-0.0258,-0.0213,-0.0022,0.0124,0.024,0.042,0.0438,0.0541,0.0553,0.0522,0.0524,0.0432,0.0416,0.0558,0.0556,0.0554,0.0553,0.0552,0,-0.0961,-0.0985,-0.0942,-0.0921,-0.0895,-0.0823,-0.0747,-0.0594,-0.0495,-0.0249,-0.0175,0.0002,0.012,0.031,0.0405,0.051,0.0524,0.0552,0.0511,0.0442,0.0439,0.0426,0.0413,0.0599,0.0598,0.0597,0.0597,0,-0.105,-0.1052,-0.1051,-0.1017,-0.0961,-0.0869,-0.0746,-0.0678,-0.0467,-0.0364,-0.0167,-0.0057,0.016,0.0288,0.0387,0.0449,0.0526,0.0534,0.0555,0.055,0.0478,0.0473,0.0461,0.0591,0.0591,0.0592,0.0592,0.0592,-0.1115,-0.1141,-0.114,-0.1098,-0.1016,-0.0896,-0.0824,-0.0701,-0.0581,-0.0368,-0.0219,-0.0042,0.0151,0.0282,0.0378,0.0461,0.0463,0.0494,0.0499,0.0504,0.0437,0.0361,0.0439,0.0439,0.0439,0.0439,0.0438,0,-0.1191,-0.1203,-0.1187,-0.1122,-0.103,-0.096,-0.0799,-0.0717,-0.0615,-0.0421,-0.0275,-0.0062,0.0093,0.0273,0.0401,0.0449,0.0487,0.045,0.0522,0.0527,0.0532,0.0468,0.0478,0.0478,0.0478,0.0478,0,0,-0.1229,-0.1261,-0.1251,-0.1144,-0.1067,-0.0933,-0.0844,-0.0747,-0.0606,-0.0453,-0.0309,-0.0094,0.0133,0.0224,0.0342,0.0413,0.0437,0.0407,0.0374,0.0452,0.0455,0.0564,0.0471,0,0,0,0,0]}],[{"header":{"parameterUnit":"m.s-1","parameterCategory":2,"la1":30.2991,"la2":30.254,"lo1":-89.0895,"lo2":-89.0444,"dy":0.0017,"dx":0.0017,"nx":28,"ny":28,"refTime":"2024-07-28T03:00:00:Z","depth":"4","parameterNumber":2,"parameterNumberName":"U-component_of_CURRENTS"},"data":[0,0,0,0,0,0,0,0,0,0,0,0,0,0,0,0,0,0,0,0,0,0,0,0,0,0,0,0,0,0,0,0,0,0,0,0,0,0,0,0,0,0,0,0,0,0,0,0,0,0,0,0,0,0,0,0,0,0,-0.0765,-0.0765,0,-0.0759,-0.0758,-0.0758,-0.0802,-0.0804,-0.0805,-0.0806,-0.0945,-0.0947,-0.0949,0,0,0,0,0,0,0,0,0,0,0,0,0,-0.0734,-0.0735,-0.0765,-0.0765,-0.0765,-0.0759,-0.0758,-0.0758,-0.0802,-0.0804,-0.0805,-0.0807,-0.0944,-0.0947,-0.0949,0,0,0,0,0,0,0,0,0,0,0,0,0,-0.0737,-0.0735,-0.0765,-0.0788,-0.0791,-0.0759,-0.0758,-0.0758,-0.0801,-0.0804,-0.0806,-0.0808,-0.0943,-0.0946,-0.095,-0.0926,0,0,-0.096,-0.0962,0,0,0,0,0,0,0,0,-0.0737,-0.0738,-0.0785,-0.0787,-0.0789,-0.0786,-0.0798,-0.0822,-0.0801,-0.0794,-0.0807,-0.0809,-0.0905,-0.0912,-0.09,-0.0932,-0.0938,-0.096,-0.0963,-0.0964,-0.0965,0,0,0,0,0,0,0,-0.0737,-0.0738,-0.076,-0.0785,-0.0788,-0.0772,-0.0775,-0.0802,-0.0838,-0.0795,-0.0799,-0.0802,-0.0907,-0.0896,-0.0904,-0.094,-0.096,-0.0963,-0.0966,-0.0967,-0.109,-0.1091,0,0,0,0,0,0,-0.0745,-0.0738,-0.076,-0.076,-0.0771,-0.0771,-0.0775,-0.0782,-0.0834,-0.0844,-0.08,-0.0804,-0.0889,-0.09,-0.0909,-0.1012,-0.0964,-0.0967,-0.0969,-0.1089,-0.109,-0.1092,0,0,0,0,0,0,-0.0744,-0.0747,-0.076,-0.0751,-0.0752,-0.077,-0.0778,-0.0781,-0.0775,-0.0837,-0.085,-0.0793,-0.0891,-0.0904,-0.098,-0.1013,-0.0969,-0.0972,-0.1087,-0.1089,-0.1091,-0.1136,0,0,0,0,0,0,-0.0744,-0.0747,-0.0762,-0.0751,-0.0753,-0.0772,-0.0776,-0.078,-0.0775,-0.078,-0.0835,-0.0849,-0.0894,-0.0975,-0.0983,-0.1017,-0.0975,-0.1086,-0.1088,-0.109,-0.1133,-0.114,-0.1145,0,0,0,0,0,-0.0742,-0.0745,-0.0763,-0.0766,-0.0771,-0.0773,-0.0772,-0.079,-0.0772,-0.0787,-0.0837,-0.0848,-0.0995,-0.0979,-0.0988,-0.1024,-0.1085,-0.1087,-0.109,-0.1131,-0.1138,-0.1145,0,0,0,0,0,0,-0.0739,-0.075,-0.0769,-0.0777,-0.0793,-0.0783,-0.0774,-0.0777,-0.0814,-0.0827,-0.0866,-0.0886,-0.096,-0.0979,-0.0959,-0.1065,-0.1039,-0.1044,-0.1066,-0.1074,-0.1079,-0.1096,-0.0977,0,0,0,0,0,-0.0745,-0.0757,-0.0768,-0.0781,-0.077,-0.0766,-0.0764,-0.079,-0.0814,-0.0828,-0.0878,-0.0927,-0.0971,-0.1014,-0.1058,-0.1115,-0.1093,-0.1142,-0.1147,-0.1152,-0.1172,-0.1185,-0.1194,-0.11,-0.11,-0.11,0,0,-0.0753,-0.0757,-0.0769,-0.0783,-0.0771,-0.0773,-0.0769,-0.0777,-0.0815,-0.084,-0.0908,-0.0946,-0.0986,-0.1066,-0.1099,-0.1095,-0.1154,-0.1156,-0.116,-0.1177,-0.1189,-0.1198,-0.1206,-0.1102,-0.1102,-0.1102,0,0,-0.0751,-0.0761,-0.0762,-0.0767,-0.0777,-0.0783,-0.0783,-0.0799,-0.084,-0.091,-0.0935,-0.1001,-0.107,-0.1124,-0.1147,-0.1202,-0.1174,-0.1209,-0.127,-0.1283,-0.129,-0.1297,-0.122,-0.122,-0.1225,-0.1225,-0.1225,0,-0.076,-0.0759,-0.0766,-0.0757,-0.0755,-0.0779,-0.0775,-0.0818,-0.0886,-0.0914,-0.0953,-0.1049,-0.1098,-0.1164,-0.1217,-0.1216,-0.1192,-0.1241,-0.129,-0.1297,-0.1303,-0.1223,-0.1222,-0.1228,-0.1228,-0.1227,-0.1227,0,-0.0751,-0.0754,-0.0736,-0.0743,-0.0755,-0.0753,-0.0805,-0.0859,-0.0903,-0.0945,-0.1039,-0.1129,-0.1194,-0.1215,-0.1251,-0.132,-0.1271,-0.1283,-0.1271,-0.1315,-0.1226,-0.1225,-0.1231,-0.1231,-0.123,-0.1229,0,0,-0.0746,-0.0734,-0.073,-0.0725,-0.0743,-0.0749,-0.0813,-0.086,-0.0878,-0.101,-0.1059,-0.1183,-0.1237,-0.1271,-0.1323,-0.1366,-0.1387,-0.1371,-0.137,-0.1289,-0.1354,-0.129,-0.128,-0.1417,-0.1419,-0.142,-0.125,0,-0.0727,-0.0714,-0.0716,-0.0713,-0.0697,-0.0736,-0.0794,-0.0864,-0.0912,-0.0989,-0.1108,-0.1189,-0.1255,-0.1318,-0.1376,-0.1391,-0.1396,-0.1428,-0.1328,-0.1323,-0.126,-0.1283,-0.1425,-0.1249,-0.1248,-0.1248,-0.1248,0,-0.07,-0.07,-0.0693,-0.0697,-0.069,-0.0719,-0.0761,-0.0826,-0.0929,-0.0975,-0.1078,-0.1167,-0.1298,-0.1351,-0.1397,-0.1419,-0.1406,-0.1399,-0.1391,-0.1327,-0.126,-0.1212,-0.1244,-0.1245,-0.1245,-0.1245,-0.1245,0,-0.0679,-0.0667,-0.0664,-0.0662,-0.0694,-0.0721,-0.0763,-0.083,-0.0883,-0.0993,-0.1029,-0.116,-0.1235,-0.1302,-0.1351,-0.1383,-0.1345,-0.1365,-0.1261,-0.125,-0.1335,-0.1331,-0.1369,-0.137,-0.137,-0.1371,-0.1371,0,-0.0633,-0.0625,-0.0664,-0.0658,-0.0675,-0.0727,-0.0755,-0.0796,-0.0896,-0.0926,-0.1058,-0.1105,-0.1238,-0.126,-0.1315,-0.1274,-0.1307,-0.1269,-0.1227,-0.1347,-0.1346,-0.1329,-0.1326,-0.1364,-0.1365,-0.1367,-0.1368,0,-0.0594,-0.0613,-0.0598,-0.0638,-0.0659,-0.0687,-0.0758,-0.078,-0.0868,-0.092,-0.0989,-0.1061,-0.1076,-0.1139,-0.1161,-0.1169,-0.1174,-0.1134,-0.119,-0.1153,-0.1062,-0.1064,-0.1003,-0.1,-0.0997,-0.0995,-0.0993,0,-0.0571,-0.057,-0.058,-0.0585,-0.0599,-0.0656,-0.0695,-0.0778,-0.0787,-0.0879,-0.0897,-0.0943,-0.0986,-0.0934,-0.1007,-0.1023,-0.104,-0.0991,-0.1123,-0.1072,-0.1037,-0.1043,-0.1048,-0.0989,-0.0988,-0.0988,-0.0987,0,-0.0525,-0.053,-0.0521,-0.0535,-0.0555,-0.0572,-0.0626,-0.0644,-0.0734,-0.0797,-0.0823,-0.0883,-0.0834,-0.0876,-0.0855,-0.0898,-0.1029,-0.0965,-0.0972,-0.1095,-0.1054,-0.1023,-0.1031,-0.0978,-0.0979,-0.098,-0.0981,0,-0.0494,-0.0471,-0.047,-0.0475,-0.0487,-0.05,-0.0534,-0.0573,-0.0623,-0.0731,-0.0713,-0.0775,-0.0798,-0.0801,-0.082,-0.083,-0.0855,-0.087,-0.0883,-0.0894,-0.0954,-0.0892,-0.0731,0,0,0,0,0,-0.0463,-0.0435,-0.0424,-0.0409,-0.0415,-0.0431,-0.0488,-0.0533,-0.0602,-0.0605,-0.0681,-0.0676,-0.0717,-0.0738,-0.0732,-0.0765,-0.0842,-0.0755,-0.0863,-0.0927,-0.0938,-0.1029,0,0,0,0,0,0,-0.044,-0.0414,-0.0401,-0.0361,-0.035,-0.0357,-0.0395,-0.045,-0.0463,-0.0544,-0.0562,-0.0633,-0.0663,-0.0702,-0.0711,-0.072,-0.078,-0.0793,-0.0792,-0.0921,-0.0931,-0.0939,-0.1036,0,0,0,0,0]},{"header":{"parameterUnit":"m.s-1","parameterCategory":2,"la1":30.2991,"la2":30.254,"lo1":-89.0895,"lo2":-89.0444,"dy":0.0017,"dx":0.0017,"nx":28,"ny":28,"refTime":"2024-07-28T03:00:00:Z","depth":"4","parameterNumber":3,"parameterNumberName":"V-component_of_CURRENTS"},"data":[0,0,0,0,0,0,0,0,0,0,0,0,0,0,0,0,0,0,0,0,0,0,0,0,0,0,0,0,0,0,0,0,0,0,0,0,0,0,0,0,0,0,0,0,0,0,0,0,0,0,0,0,0,0,0,0,0,0,-0.0492,-0.0493,0,-0.0545,-0.0545,-0.0546,-0.0549,-0.0549,-0.0548,-0.0547,-0.0568,-0.0569,-0.0571,0,0,0,0,0,0,0,0,0,0,0,0,0,-0.0443,-0.0444,-0.0492,-0.0493,-0.0493,-0.0544,-0.0545,-0.0546,-0.0549,-0.0548,-0.0547,-0.0547,-0.0568,-0.0569,-0.0571,0,0,0,0,0,0,0,0,0,0,0,0,0,-0.0479,-0.0444,-0.0492,-0.0499,-0.05,-0.0544,-0.0545,-0.0547,-0.055,-0.0548,-0.0547,-0.0546,-0.0567,-0.0569,-0.0571,-0.0608,0,0,-0.0577,-0.0578,0,0,0,0,0,0,0,0,-0.0477,-0.0481,-0.0498,-0.0499,-0.05,-0.0537,-0.0536,-0.0565,-0.055,-0.0534,-0.0547,-0.0545,-0.0554,-0.0557,-0.0574,-0.0609,-0.061,-0.0577,-0.0579,-0.0579,-0.058,0,0,0,0,0,0,0,-0.0475,-0.0479,-0.0516,-0.0498,-0.0499,-0.0516,-0.0519,-0.0542,-0.0552,-0.0535,-0.0535,-0.0537,-0.0555,-0.0572,-0.0574,-0.0611,-0.0577,-0.0579,-0.058,-0.0581,-0.0689,-0.0691,0,0,0,0,0,0,-0.0462,-0.0477,-0.0514,-0.0517,-0.0482,-0.0517,-0.0521,-0.0528,-0.0552,-0.0554,-0.0538,-0.0537,-0.0569,-0.0572,-0.0575,-0.0632,-0.0579,-0.0581,-0.0583,-0.0688,-0.069,-0.0691,0,0,0,0,0,0,-0.0461,-0.0465,-0.0512,-0.0496,-0.0502,-0.0519,-0.0527,-0.053,-0.055,-0.0554,-0.0556,-0.0554,-0.0568,-0.0572,-0.0602,-0.0632,-0.0582,-0.0584,-0.0686,-0.0688,-0.0691,-0.0738,0,0,0,0,0,0,-0.0459,-0.0465,-0.0478,-0.0495,-0.0503,-0.0548,-0.0528,-0.0532,-0.0552,-0.0551,-0.0569,-0.0569,-0.0568,-0.0599,-0.0604,-0.0634,-0.0586,-0.0684,-0.0687,-0.069,-0.0734,-0.0742,-0.0748,0,0,0,0,0,-0.0458,-0.0475,-0.0479,-0.0483,-0.0516,-0.0549,-0.0556,-0.0564,-0.0554,-0.0576,-0.0582,-0.0569,-0.0622,-0.0602,-0.0608,-0.0638,-0.0682,-0.0686,-0.069,-0.0731,-0.074,-0.0748,0,0,0,0,0,0,-0.0462,-0.0477,-0.0481,-0.0503,-0.0529,-0.0548,-0.0571,-0.0572,-0.0597,-0.0595,-0.0591,-0.0594,-0.0632,-0.0632,-0.061,-0.068,-0.0651,-0.0656,-0.068,-0.0689,-0.0696,-0.0717,-0.0587,0,0,0,0,0,-0.0469,-0.0486,-0.0505,-0.0526,-0.0541,-0.0559,-0.0576,-0.0581,-0.0598,-0.0608,-0.0619,-0.0633,-0.0655,-0.0667,-0.0687,-0.0727,-0.0683,-0.0751,-0.0758,-0.0763,-0.0786,-0.0747,-0.0752,-0.0704,-0.0704,-0.0704,0,0,-0.0476,-0.0487,-0.0498,-0.0529,-0.055,-0.0584,-0.0567,-0.0598,-0.0625,-0.0607,-0.0652,-0.066,-0.0672,-0.0714,-0.0732,-0.0716,-0.0745,-0.0768,-0.0773,-0.0793,-0.0751,-0.0756,-0.0759,-0.0706,-0.0706,-0.0705,0,0,-0.0499,-0.0512,-0.0537,-0.0565,-0.0597,-0.0609,-0.0619,-0.0648,-0.0662,-0.0701,-0.0697,-0.0723,-0.0756,-0.0774,-0.0784,-0.0845,-0.0783,-0.0851,-0.0905,-0.0866,-0.0869,-0.0871,-0.0773,-0.0766,-0.0854,-0.0854,-0.0854,0,-0.051,-0.0543,-0.0552,-0.0589,-0.0615,-0.0621,-0.0661,-0.0683,-0.0717,-0.0728,-0.072,-0.0771,-0.0787,-0.083,-0.0866,-0.0861,-0.0807,-0.0867,-0.0872,-0.0874,-0.0876,-0.0775,-0.0767,-0.0857,-0.0856,-0.0856,-0.0856,0,-0.0551,-0.0589,-0.061,-0.0655,-0.0683,-0.0721,-0.0746,-0.0777,-0.0784,-0.0791,-0.0831,-0.0852,-0.0874,-0.0893,-0.0909,-0.0943,-0.0886,-0.0881,-0.0845,-0.0883,-0.0774,-0.0765,-0.086,-0.0859,-0.0859,-0.0858,0,0,-0.0547,-0.0624,-0.0633,-0.0667,-0.0723,-0.0744,-0.0799,-0.0837,-0.085,-0.0882,-0.0898,-0.0966,-0.0956,-0.0971,-0.0981,-0.0981,-0.0944,-0.0955,-0.0951,-0.0845,-0.0809,-0.0704,-0.0682,-0.0934,-0.0934,-0.0934,-0.0709,0,-0.0582,-0.0655,-0.0686,-0.0756,-0.0797,-0.0829,-0.0874,-0.0903,-0.0911,-0.0926,-0.0943,-0.0965,-0.0986,-0.1,-0.1002,-0.0967,-0.0932,-0.1003,-0.08,-0.0793,-0.0687,-0.0674,-0.0934,-0.0701,-0.0699,-0.0698,-0.0696,0,-0.0611,-0.0657,-0.0737,-0.0806,-0.0825,-0.0871,-0.0919,-0.0957,-0.0979,-0.0979,-0.0992,-0.0985,-0.1009,-0.1015,-0.0941,-0.0981,-0.0913,-0.0872,-0.0861,-0.0752,-0.0674,-0.0669,-0.0679,-0.068,-0.0682,-0.0683,-0.0684,0,-0.0594,-0.0686,-0.0748,-0.0779,-0.0861,-0.0905,-0.0945,-0.0978,-0.0986,-0.1012,-0.0989,-0.0999,-0.0971,-0.0934,-0.0855,-0.0897,-0.0729,-0.0753,-0.0575,-0.0563,-0.0702,-0.0703,-0.0687,-0.0687,-0.0687,-0.0688,-0.0689,0,-0.0617,-0.0666,-0.0752,-0.0789,-0.0851,-0.0909,-0.0955,-0.0989,-0.1006,-0.098,-0.1011,-0.0961,-0.0956,-0.0856,-0.0817,-0.0636,-0.067,-0.0576,-0.051,-0.072,-0.0726,-0.0691,-0.0694,-0.068,-0.0681,-0.0683,-0.0685,0,-0.0606,-0.0665,-0.073,-0.0822,-0.0853,-0.0897,-0.096,-0.0969,-0.0991,-0.0953,-0.0959,-0.0903,-0.0775,-0.0711,-0.0597,-0.0532,-0.0418,-0.0341,-0.051,-0.0458,-0.0284,-0.0293,-0.0129,-0.0123,-0.0119,-0.0115,-0.0112,0,-0.061,-0.0648,-0.0738,-0.0768,-0.0822,-0.0889,-0.0923,-0.0967,-0.0947,-0.0889,-0.0842,-0.0731,-0.0679,-0.0401,-0.0373,-0.0219,-0.0222,-0.0133,-0.0299,-0.028,-0.0232,-0.0249,-0.0263,-0.0105,-0.0104,-0.0103,-0.0101,0,-0.0614,-0.0648,-0.0701,-0.0757,-0.0803,-0.084,-0.0878,-0.0853,-0.0858,-0.0855,-0.0702,-0.0602,-0.042,-0.0318,-0.0172,-0.0092,-0.0198,-0.0087,-0.0099,-0.0254,-0.0249,-0.021,-0.023,-0.0086,-0.0088,-0.009,-0.009,0,-0.0608,-0.0634,-0.0694,-0.0744,-0.0782,-0.0786,-0.0813,-0.077,-0.0753,-0.0679,-0.0606,-0.0483,-0.0416,-0.024,-0.012,-0.0016,-0.0031,-0.0035,-0.005,-0.0066,-0.0151,-0.0143,0.0122,0,0,0,0,0,-0.0599,-0.0629,-0.0671,-0.0719,-0.0746,-0.0773,-0.0774,-0.0784,-0.0757,-0.0627,-0.062,-0.046,-0.0264,-0.0193,-0.0067,-0.0077,-0.0038,0.0073,-0.0057,0.0,-0.0018,-0.0124,0,0,0,0,0,0,-0.0595,-0.0638,-0.0667,-0.0689,-0.0709,-0.0735,-0.0735,-0.072,-0.0643,-0.0599,-0.0494,-0.0427,-0.0251,-0.034,-0.0067,-0.0036,-0.0098,0.0157,0.016,0.0011,-0.0006,-0.002,-0.0136,0,0,0,0,0]}]]